TIANHUI 5B

Satellite information

Favourite Embed

Satellite Type and Status

PAYLOADIN ORBIT

Key statistics

Satellite TIANHUI 5B at a glance.

Uptime

613

Days in orbit

Revolutions

≈ 14.9

Per day

Orbit

SSO

Sun Synchronous Orbit

Inclination

97.8

Latest

Satellite identification and parameters

Extended collection of information and parameters for TIANHUI 5B.

Object identification

Identified? True

Debris? False

Object name: TIANHUI 5B

International designator: 2023-168C

Object number (NORAD): 58201

Object ID (CCSDS): 58201

Country: PEOPLES REPUBLIC OF CHINA (PRC)

Current information (Y/N): Y

RCS size: LARGE

Orbital parameters

Period: 96.801 minutes

Inclination: 97.8205 deg

SMA: 6983.619 km

Apoapsis: 606.954 km

Periapsis: 604.014 km

RAAN: 191.2298 deg

Eccentricy: 0.0002105

Argument of periapsis: 98.2226 deg

Mean anomaly: 261.9229 deg

Mean motion: 14.87585632 rev/day

Mean motion (dot): 0.00000368 rev/day2

B* drag term: 0.000046472 1/REarth

Two-line elements (TLE)

Creation date: July 3, 2025, 3:40 a.m.

Reference frame: TEME

Reference center: EARTH

Epoch: July 2, 2025, 8:08 p.m. UTC

TLE line 0: 0 TIANHUI 5B

TLE line 1: 1 58201U 23168C 25183.83889831 .00000368 00000-0 46472-4 0 9997

TLE line 2: 2 58201 97.8205 191.2298 0002105 98.2226 261.9229 14.87585632 90669

Live tracking on map

Real-time ground track for satellite TIANHUI 5B.

In-orbit conjunctions

There are no conjunctions computed for TIANHUI 5B, at the moment. Check back to stay up to date, as we update our databases every day.

Go to all conjunctions

Associated space launch

A pair of satellites officially described as for cartographic surveying purposes, details TBD.

TIANHUI 5B was lifted into orbit during the mission ‘Long March 6A | Tianhui 5’, on board a Long March 6A space rocket.

The launch took place on Oct. 31, 2023, 10:50 p.m. from Launch Complex 9A.

For more information about the launch, click the button.

Launch to space Long March 6A | Tianhui 5
Long March 6A | Tianhui 5

Agency: N/A

Status: Launch Successful

Launch date: Oct. 31, 2023, 10:50 p.m. UTC

Rocket: Long March 6A

Launch pad: Launch Complex 9A

Location: Taiyuan Satellite Launch Center, People's Republic of China

...

Latest news about this satellite

There are no fresh news available about this satellite. Check back as we update our databases every day.


Newsletter sign-up

Weekly statistics, charts and insights to help you stay on top of the space industry.